Location: *
(38.3914°N, 75.0697°W)
Time: 16:23:23
(UTC+00:00)

ISS - Visible Passes

Search period start: 25 February 2021 00:00
Search period end: 07 March 2021 00:00
Orbit: 417 x 422 km, 51.6° (Epoch: 26 February)

Date Brightness Start Highest point End Pass type
(mag) Time Alt. Az. Time Alt. Az. Time Alt. Az.
25 Feb -2.1 10:02:06 23° N 10:02:06 23° N 10:04:19 10° NNE visible
26 Feb -0.7 09:16:37 13° NNE 09:16:37 13° NNE 09:17:04 10° NE visible
26 Feb -1.3 10:50:28 10° NNW 10:51:31 11° NNW 10:52:32 10° N visible
27 Feb -1.4 10:04:01 13° NNW 10:04:01 13° NNW 10:05:34 10° NNE visible
28 Feb -0.6 09:18:23 10° NNE 09:18:23 10° NNE 09:18:27 10° NNE visible
04 Mar -1.1 10:57:11 10° NNW 10:58:52 13° NNE 11:00:34 10° NE visible
05 Mar -0.9 10:10:12 10° N 10:11:05 11° NNE 10:11:57 10° NNE visible
